[[{"header":{"parameterUnit":"m.s-1","parameterCategory":1,"la1":30.2991,"la2":30.254,"lo1":-89.0895,"lo2":-89.0444,"dy":0.0017,"dx":0.0017,"nx":28,"ny":28,"refTime":"2025-03-30T09:00:00:Z","depth":0,"parameterNumber":2,"parameterNumberName":"U-component_of_WINDS"},"data":[0,0,0,0,0,0,0,0,0,0,0,0,0,0,0,0,0,0,0,0,0,0,0,0,0,0,0,0,0,0,0,0,0,0,0,0,0,0,0,0,0,0,0,0,0,0,0,0,0,0,0,0,0,0,0,0,0,0,1.5573,1.5573,0,1.5566,1.5566,1.5566,1.5512,1.551,1.5509,1.5508,1.5504,1.5505,1.5506,0,0,0,0,0,0,0,0,0,0,0,0,0,1.5546,1.5546,1.5573,1.5573,1.5573,1.5566,1.5566,1.5565,1.5512,1.551,1.5509,1.5507,1.5504,1.5505,1.5506,0,0,0,0,0,0,0,0,0,0,0,0,0,1.555,1.5547,1.5573,1.5545,1.5543,1.5566,1.5566,1.5565,1.5512,1.551,1.5508,1.5506,1.5503,1.5505,1.5506,1.5557,0,0,1.5512,1.5512,0,0,0,0,0,0,0,0,1.555,1.5551,1.5549,1.5547,1.5544,1.5537,1.5554,1.5563,1.5513,1.5524,1.5508,1.5505,1.5517,1.5517,1.5521,1.5557,1.5557,1.5512,1.5513,1.5514,1.5514,0,0,0,0,0,0,0,1.555,1.5551,1.557,1.5549,1.5546,1.5535,1.5533,1.5556,1.5532,1.5523,1.5519,1.5518,1.5515,1.5519,1.552,1.5557,1.5512,1.5513,1.5514,1.5515,1.5636,1.5638,0,0,0,0,0,0,1.5553,1.5551,1.5571,1.557,1.5542,1.5537,1.5535,1.5542,1.5531,1.5528,1.552,1.5516,1.5517,1.5518,1.552,1.5579,1.5514,1.5515,1.5516,1.5634,1.5637,1.5639,0,0,0,0,0,0,1.5552,1.5555,1.5571,1.556,1.5561,1.5539,1.5547,1.5543,1.5546,1.5529,1.5525,1.5528,1.5516,1.5517,1.5548,1.5578,1.5516,1.5518,1.5631,1.5635,1.5638,1.5698,0,0,0,0,0,0,1.5552,1.5555,1.5573,1.556,1.5561,1.5598,1.5549,1.5544,1.5549,1.5543,1.5536,1.5533,1.5514,1.5546,1.555,1.5579,1.5519,1.5629,1.5633,1.5637,1.5693,1.5703,1.5711,0,0,0,0,0,1.5551,1.559,1.5574,1.5576,1.5583,1.56,1.5601,1.5577,1.5551,1.557,1.5559,1.5533,1.5574,1.555,1.5554,1.5584,1.5627,1.5632,1.5636,1.5689,1.5701,1.5711,0,0,0,0,0,0,1.5608,1.5588,1.557,1.5606,1.5605,1.5591,1.5613,1.559,1.5598,1.5592,1.5564,1.5563,1.5599,1.5595,1.5567,1.5633,1.5596,1.5602,1.5635,1.5646,1.5654,1.5655,1.552,0,0,0,0,0,1.5624,1.5638,1.5621,1.5655,1.5655,1.5635,1.5641,1.5623,1.5622,1.5621,1.5613,1.5614,1.5627,1.5636,1.5647,1.5692,1.5691,1.5716,1.5724,1.5732,1.5737,1.5763,1.5774,1.5655,1.5655,1.5655,0,0,1.5659,1.565,1.5661,1.5666,1.5663,1.568,1.5635,1.5654,1.5666,1.5625,1.5653,1.5647,1.5646,1.5685,1.5702,1.5682,1.577,1.5738,1.5744,1.5746,1.5769,1.578,1.579,1.5658,1.5658,1.5657,0,0,1.5731,1.5725,1.5753,1.5751,1.5747,1.5733,1.5741,1.573,1.5724,1.5752,1.5721,1.5737,1.576,1.5761,1.5764,1.5839,1.5815,1.5843,1.589,1.5915,1.5924,1.5932,1.596,1.597,1.5849,1.5849,1.5849,0,1.5775,1.5797,1.5771,1.5792,1.5797,1.5759,1.5788,1.5788,1.5788,1.5793,1.5771,1.58,1.5797,1.5836,1.5854,1.5858,1.5866,1.5844,1.5925,1.5933,1.594,1.5966,1.5976,1.5852,1.5852,1.5852,1.5851,0,1.5852,1.5869,1.5892,1.5892,1.5899,1.5925,1.5904,1.5914,1.5897,1.5886,1.5916,1.5911,1.5921,1.5929,1.5912,1.5966,1.5954,1.5929,1.5891,1.5955,1.5979,1.5989,1.5857,1.5856,1.5855,1.5854,0,0,1.5959,1.5945,1.5954,1.5954,1.5948,1.5961,1.5986,1.5994,1.6004,1.6006,1.6027,1.6048,1.6026,1.603,1.6013,1.6035,1.6095,1.6007,1.6007,1.6024,1.6156,1.6175,1.6187,1.608,1.6082,1.6083,1.6156,0,1.6028,1.6067,1.6045,1.6089,1.6104,1.607,1.6092,1.6091,1.6082,1.6095,1.6086,1.6102,1.607,1.6072,1.6092,1.6084,1.6122,1.6078,1.61,1.6102,1.6102,1.6199,1.6219,1.6288,1.6166,1.6167,1.6168,0,1.6114,1.6119,1.6163,1.6155,1.6161,1.6181,1.6188,1.62,1.62,1.6192,1.6198,1.6176,1.6202,1.6164,1.62,1.6171,1.618,1.6177,1.6179,1.618,1.6139,1.6203,1.631,1.632,1.6183,1.6181,1.618,0,1.6187,1.6206,1.6235,1.6236,1.6227,1.6242,1.6239,1.6237,1.6244,1.6251,1.6256,1.6266,1.6272,1.6282,1.6264,1.6239,1.6303,1.6264,1.6299,1.6299,1.6314,1.6313,1.6423,1.6319,1.6319,1.6319,1.6318,0,1.6267,1.6296,1.6268,1.6286,1.6318,1.6294,1.6327,1.632,1.6319,1.6337,1.6308,1.6326,1.6302,1.6318,1.6305,1.6337,1.634,1.6335,1.6332,1.6338,1.6339,1.6343,1.6338,1.6321,1.6321,1.632,1.632,0,1.6354,1.6336,1.6366,1.6356,1.6354,1.6378,1.637,1.6387,1.6377,1.6399,1.6404,1.6388,1.6405,1.6389,1.6406,1.6397,1.6441,1.643,1.6441,1.6438,1.6473,1.647,1.659,1.6605,1.6491,1.6492,1.6493,0,1.6406,1.6427,1.6419,1.6428,1.6427,1.6442,1.6449,1.6427,1.6436,1.6438,1.6456,1.6471,1.6481,1.6511,1.6502,1.6515,1.6505,1.6546,1.6507,1.6513,1.6506,1.6505,1.6508,1.6554,1.6555,1.6557,1.6557,0,1.65,1.649,1.6501,1.6509,1.6519,1.6524,1.6528,1.6538,1.6515,1.6527,1.6544,1.6552,1.6569,1.6585,1.6596,1.6595,1.6573,1.657,1.6579,1.6585,1.6591,1.6589,1.6463,1.6567,1.6566,1.6565,1.6565,1.6565,1.6571,1.6589,1.6586,1.6599,1.66,1.6604,1.662,1.6612,1.6625,1.6637,1.6623,1.6645,1.6646,1.6658,1.666,1.6678,1.666,1.6673,1.6676,1.668,1.6685,1.6588,1.6679,1.6679,1.6679,1.6679,1.6678,0,1.6664,1.666,1.6673,1.6679,1.669,1.6668,1.6672,1.6683,1.6701,1.6704,1.6715,1.6736,1.6751,1.6744,1.6758,1.6774,1.6764,1.6778,1.6777,1.6777,1.6699,1.669,1.6786,1.6786,1.6786,1.6786,1.6786,1.6786,1.6713,1.6742,1.6733,1.6763,1.676,1.678,1.6784,1.6789,1.6791,1.6815,1.6827,1.6822,1.6821,1.6835,1.685,1.6847,1.6854,1.6872,1.6866,1.6793,1.6783,1.6773,1.6764,1.6873,1.6874,1.6943,1.6943,1.6944]},{"header":{"parameterUnit":"m.s-1","parameterCategory":1,"la1":30.2991,"la2":30.254,"lo1":-89.0895,"lo2":-89.0444,"dy":0.0017,"dx":0.0017,"nx":28,"ny":28,"refTime":"2025-03-30T09:00:00:Z","depth":0,"parameterNumber":3,"parameterNumberName":"V-component_of_WINDS"},"data":[0,0,0,0,0,0,0,0,0,0,0,0,0,0,0,0,0,0,0,0,0,0,0,0,0,0,0,0,0,0,0,0,0,0,0,0,0,0,0,0,0,0,0,0,0,0,0,0,0,0,0,0,0,0,0,0,0,0,2.3835,2.3835,0,2.3888,2.3889,2.389,2.3869,2.3868,2.3867,2.3865,2.3919,2.3921,2.3924,0,0,0,0,0,0,0,0,0,0,0,0,0,2.3714,2.3716,2.3835,2.3835,2.3836,2.3888,2.3889,2.389,2.3869,2.3868,2.3866,2.3865,2.3918,2.3921,2.3924,0,0,0,0,0,0,0,0,0,0,0,0,0,2.3767,2.3717,2.3835,2.3832,2.3833,2.3888,2.3889,2.389,2.387,2.3868,2.3866,2.3864,2.3917,2.3921,2.3925,2.3986,0,0,2.3936,2.3938,0,0,0,0,0,0,0,0,2.3764,2.3771,2.3832,2.3832,2.3833,2.387,2.3866,2.3922,2.387,2.3855,2.3865,2.3863,2.3904,2.3909,2.3923,2.3988,2.399,2.3937,2.3939,2.3941,2.3942,0,0,0,0,0,0,0,2.376,2.3769,2.3856,2.3833,2.3833,2.3828,2.3834,2.3876,2.3889,2.3857,2.3855,2.3862,2.3904,2.3919,2.3924,2.3991,2.3937,2.394,2.3943,2.3944,2.4109,2.4111,0,0,0,0,0,0,2.3756,2.3766,2.3854,2.3858,2.3793,2.3832,2.3838,2.386,2.3889,2.3892,2.3863,2.3861,2.3914,2.392,2.3926,2.3999,2.3941,2.3944,2.3947,2.4107,2.4109,2.4112,0,0,0,0,0,0,2.3754,2.3764,2.3852,2.3811,2.3822,2.3836,2.3861,2.3862,2.3877,2.3894,2.3896,2.3877,2.3912,2.392,2.3971,2.4001,2.3946,2.395,2.4105,2.4108,2.4111,2.4146,0,0,0,0,0,0,2.375,2.3764,2.3787,2.3812,2.3824,2.3897,2.3863,2.3864,2.3884,2.3881,2.3907,2.391,2.3912,2.3965,2.3975,2.4005,2.3953,2.4102,2.4106,2.411,2.4143,2.415,2.4157,0,0,0,0,0,2.3746,2.3795,2.3788,2.3799,2.3854,2.3898,2.3905,2.3907,2.3887,2.391,2.3921,2.3909,2.3996,2.3971,2.3981,2.4013,2.41,2.4105,2.4109,2.4139,2.4149,2.4157,0,0,0,0,0,0,2.3772,2.3798,2.3791,2.3849,2.3872,2.3895,2.3925,2.3917,2.3945,2.3941,2.3942,2.3948,2.4,2.4011,2.3983,2.4074,2.4045,2.4052,2.4064,2.4073,2.408,2.4076,2.3956,0,0,0,0,0,2.3785,2.3819,2.3839,2.3889,2.3901,2.3911,2.393,2.393,2.3953,2.3962,2.3977,2.3999,2.4032,2.4053,2.4084,2.4144,2.415,2.4171,2.4179,2.4184,2.419,2.4223,2.4233,2.4127,2.4127,2.4127,0,0,2.3811,2.3829,2.3851,2.3895,2.3912,2.3947,2.3919,2.3957,2.3983,2.3968,2.4016,2.4028,2.4053,2.4109,2.4134,2.412,2.4221,2.419,2.4195,2.4198,2.4229,2.4239,2.4248,2.413,2.413,2.4129,0,0,2.3877,2.3894,2.3937,2.3955,2.3983,2.3989,2.4,2.4024,2.4031,2.408,2.4069,2.41,2.4156,2.4175,2.4192,2.4265,2.4255,2.4275,2.4313,2.4345,2.4353,2.4361,2.4387,2.4397,2.4281,2.4281,2.4281,0,2.3906,2.3959,2.396,2.4,2.4019,2.4007,2.4051,2.4069,2.4104,2.4118,2.4102,2.4172,2.4188,2.4248,2.4267,2.4281,2.4292,2.4272,2.4352,2.4359,2.4366,2.4392,2.4402,2.4284,2.4283,2.4283,2.4283,0,2.3993,2.403,2.4062,2.4097,2.412,2.4161,2.4169,2.4192,2.419,2.4198,2.4248,2.4267,2.4302,2.4316,2.4314,2.4376,2.4367,2.4352,2.4323,2.4379,2.4402,2.4412,2.4287,2.4286,2.4285,2.4285,0,0,2.4076,2.4112,2.4124,2.414,2.4169,2.4198,2.4239,2.4273,2.4293,2.4318,2.4352,2.44,2.4387,2.4406,2.4405,2.4434,2.4491,2.4415,2.4416,2.4429,2.4561,2.4573,2.4584,2.4485,2.4486,2.4488,2.4559,0,2.4144,2.4216,2.4219,2.4285,2.4319,2.4309,2.4344,2.4366,2.4375,2.4405,2.4415,2.4449,2.4428,2.444,2.4467,2.4478,2.4518,2.4473,2.4516,2.4518,2.451,2.4596,2.4608,2.4675,2.4568,2.457,2.4571,0,2.4233,2.4262,2.4331,2.4356,2.437,2.4402,2.4435,2.4464,2.4488,2.4493,2.4515,2.451,2.4552,2.4522,2.4579,2.4549,2.4567,2.4575,2.4578,2.4582,2.4548,2.4603,2.4696,2.4706,2.4586,2.4585,2.4584,0,2.4287,2.4342,2.4391,2.4405,2.4436,2.4459,2.4472,2.4495,2.4516,2.4544,2.4557,2.4589,2.4607,2.4632,2.4637,2.4614,2.4695,2.4665,2.4699,2.4699,2.4717,2.4715,2.4814,2.4728,2.4728,2.4728,2.4728,0,2.4362,2.4405,2.4416,2.4446,2.4494,2.4497,2.4544,2.4556,2.4576,2.4608,2.4601,2.4631,2.4635,2.4667,2.467,2.4718,2.4726,2.473,2.4731,2.4731,2.4731,2.4743,2.4738,2.473,2.473,2.4729,2.4729,0,2.443,2.4439,2.4492,2.4517,2.4524,2.4558,2.4579,2.4608,2.4616,2.4657,2.4666,2.468,2.4716,2.4723,2.4766,2.4769,2.4825,2.4821,2.4817,2.4817,2.4851,2.4848,2.4961,2.4976,2.488,2.4881,2.4882,0,2.4478,2.451,2.4539,2.456,2.4575,2.461,2.4631,2.4635,2.4658,2.4688,2.4714,2.4749,2.4778,2.4837,2.485,2.4883,2.488,2.4917,2.4885,2.4884,2.4881,2.4879,2.4882,2.4924,2.4925,2.4925,2.4926,0,2.4561,2.4564,2.4596,2.4629,2.4655,2.4681,2.4706,2.4724,2.4731,2.4757,2.4795,2.4817,2.4862,2.4897,2.493,2.4944,2.4937,2.4936,2.4946,2.4947,2.4943,2.4946,2.4834,2.4934,2.4933,2.4932,2.4932,2.4932,2.462,2.4649,2.4674,2.471,2.4729,2.4753,2.4781,2.4794,2.4825,2.4862,2.4863,2.4904,2.4928,2.4972,2.4988,2.502,2.5008,2.5022,2.5026,2.5029,2.5033,2.4938,2.5026,2.5026,2.5025,2.5025,2.5025,0,2.4704,2.4719,2.4752,2.4788,2.4816,2.4807,2.4834,2.4858,2.4895,2.4918,2.4947,2.499,2.5025,2.5042,2.5076,2.5099,2.5096,2.5108,2.5106,2.511,2.5041,2.5029,2.5109,2.5109,2.5109,2.5109,2.5109,2.5109,2.475,2.4799,2.4805,2.4864,2.4879,2.492,2.4936,2.4958,2.4977,2.5026,2.5055,2.5066,2.5087,2.5123,2.5155,2.5158,2.5172,2.5185,2.5187,2.5123,2.5114,2.5106,2.5095,2.5188,2.5188,2.5253,2.5254,2.5254]}]]